Cork, Ireland

8:45 PM IST on October 17, 2017 (GMT +0100)
Cork

Weather History for EICK - June, 2013

Change the Weather History Date:

Friday, June 21, 2013

  Actual Average Record
Temperature  
Mean Temperature 56 °F -  
Max Temperature 62 °F 64 °F 74 °F (2017)
Min Temperature 51 °F 51 °F 44 °F (2004)
Degree Days  
Heating Degree Days 8    
Growing Degree Days 6 (Base 50)    
Moisture  
Dew Point 50 °F    
Average Humidity 83    
Maximum Humidity 100    
Minimum Humidity 50    
Precipitation  
Precipitation 0.02 in 0.09 in - ()
Sea Level Pressure  
Sea Level Pressure 29.84 in    
Wind  
Wind Speed 12 mph ()    
Max Wind Speed 21 mph    
Max Gust Speed -    
Visibility 6.1 miles    
Events Rain    
Averages and records for this station are not official NWS values.
T = Trace of Precipitation, MM = Missing Value Source: Averaged Metar Reports

Daily Weather History Graph

Daily Weather History Graph

Search for Another Location

Airport or City:

Trip Planner

Search our weather history database for the weather conditions in past years. The results will help you decide how hot, cold, wet, or windy it might be!

Date:

Astronomy

Jun. 21, 2013 Rise Set
Actual Time 5:14 AM IST 9:56 PM IST
Civil Twilight 4:26 AM IST 10:45 PM IST
Nautical Twilight 3:08 AM IST 12:02 AM IST
Astronomical Twilight 2:08 AM IST 1:03 AM IST
Moon 7:42 PM IST (6/21) 3:31 AM IST (6/21)
Length of Visible Light 18h 19m
Length of Day
16h 42m
Waxing Gibbous, 94% of the Moon is Illuminated
Jun 21
Waxing Gibbous
Jun 23
Full
Jun 30
Last Quarter
Jul 8
New
Jul 16
First Quarter

Hourly Weather History & Observations

Time (IST) Temp. Dew Point Humidity Pressure Visibility Wind Dir Wind Speed Gust Speed Precip Events Conditions
12:00 AM 55.4 °F 53.6 °F 94% 29.89 in 6.2 mi NW 12.7 mph - N/A   Mostly Cloudy
12:30 AM 55.4 °F 53.6 °F 94% 29.89 in 6.2 mi NW 9.2 mph - N/A   Mostly Cloudy
1:00 AM 56 °F 53 °F 88% 29.89 in 19 mi NW 11.2 mph - -   Mostly Cloudy
1:00 AM 55.4 °F 53.6 °F 94% 29.89 in 6.2 mi NW 11.5 mph - N/A   Mostly Cloudy
1:30 AM 55.4 °F 53.6 °F 94% 29.89 in 6.2 mi NW 12.7 mph - N/A   Mostly Cloudy
2:00 AM 55.4 °F 53.6 °F 94% 29.89 in 6.2 mi NW 12.7 mph - N/A   Light Drizzle
2:30 AM 55.4 °F 51.8 °F 88% 29.89 in 6.2 mi NW 12.7 mph - N/A   Light Drizzle
3:00 AM 55.4 °F 51.8 °F 88% 29.89 in 6.2 mi NW 13.8 mph - N/A   Light Drizzle
3:30 AM 53.6 °F 50.0 °F 88% 29.89 in 6.2 mi NW 16.1 mph - N/A   Mostly Cloudy
4:00 AM 53.6 °F 48.2 °F 82% 29.89 in 6.2 mi NW 12.7 mph - N/A   Scattered Clouds
4:30 AM 53.6 °F 50.0 °F 88% 29.89 in 6.2 mi NW 15.0 mph - N/A   Mostly Cloudy
5:00 AM 53.6 °F 50.0 °F 88% 29.89 in 6.2 mi NW 10.4 mph - N/A   Mostly Cloudy
5:30 AM 51.8 °F 50.0 °F 94% 29.89 in 6.2 mi NW 11.5 mph - N/A   Scattered Clouds
6:00 AM 53.6 °F 50.0 °F 88% 29.89 in 6.2 mi NW 12.7 mph - N/A   Mostly Cloudy
6:30 AM 53.6 °F 50.0 °F 88% 29.89 in 6.2 mi NW 11.5 mph - N/A   Partly Cloudy
7:00 AM 53 °F 50 °F 84% 29.93 in 16 mi NW 13.4 mph - -   Partly Cloudy
7:00 AM 53.6 °F 50.0 °F 88% 29.92 in 6.2 mi NW 12.7 mph - N/A   Partly Cloudy
7:30 AM 53.6 °F 50.0 °F 88% 29.92 in 6.2 mi NW 10.4 mph - N/A   Partly Cloudy
8:00 AM 55.4 °F 50.0 °F 82% 29.92 in 6.2 mi NW 12.7 mph - N/A   Mostly Cloudy
8:30 AM 55.4 °F 48.2 °F 77% 29.92 in 6.2 mi NW 12.7 mph - N/A   Scattered Clouds
9:00 AM 55.4 °F 48.2 °F 77% 29.92 in 6.2 mi WNW 10.4 mph - N/A   Scattered Clouds
9:30 AM 57.2 °F 44.6 °F 63% 29.92 in 6.2 mi NW 11.5 mph - N/A   Scattered Clouds
10:00 AM 57.2 °F 44.6 °F 63% 29.92 in 6.2 mi WNW 13.8 mph - N/A   Mostly Cloudy
10:30 AM 57.2 °F 44.6 °F 63% 29.92 in 6.2 mi WNW 12.7 mph - N/A   Mostly Cloudy
11:00 AM 57.2 °F 44.6 °F 63% 29.92 in 6.2 mi WNW 13.8 mph - N/A   Mostly Cloudy
11:30 AM 59.0 °F 46.4 °F 63% 29.89 in 6.2 mi West 9.2 mph - N/A   Mostly Cloudy
12:00 PM 59.0 °F 46.4 °F 63% 29.89 in 6.2 mi West 8.1 mph - N/A   Mostly Cloudy
12:30 PM 60.8 °F 48.2 °F 63% 29.89 in 6.2 mi WSW 9.2 mph - N/A   Mostly Cloudy
1:00 PM 61 °F 47 °F 50% 29.90 in 31 mi SW 8.9 mph - -   Mostly Cloudy
1:00 PM 60.8 °F 48.2 °F 63% 29.89 in 6.2 mi WSW 9.2 mph - N/A   Mostly Cloudy
1:30 PM 60.8 °F 46.4 °F 59% 29.89 in 6.2 mi WSW 9.2 mph - N/A   Mostly Cloudy
2:00 PM 60.8 °F 46.4 °F 59% 29.86 in 6.2 mi WSW 11.5 mph - N/A   Mostly Cloudy
2:30 PM 60.8 °F 46.4 °F 59% 29.86 in 6.2 mi SW 12.7 mph - N/A   Mostly Cloudy
3:00 PM 59.0 °F 48.2 °F 67% 29.86 in 6.2 mi SW 17.3 mph - N/A   Mostly Cloudy
3:30 PM 59.0 °F 46.4 °F 63% 29.86 in 6.2 mi SW 17.3 mph - N/A   Scattered Clouds
4:00 PM 60.8 °F 48.2 °F 63% 29.86 in 6.2 mi SW 18.4 mph - N/A   Mostly Cloudy
4:30 PM 55.4 °F 48.2 °F 77% 29.83 in 6.2 mi SW 19.6 mph - N/A   Mostly Cloudy
5:00 PM 53.6 °F 50.0 °F 88% 29.83 in 6.2 mi SW 20.7 mph - N/A Rain Light Rain
5:30 PM 53.6 °F 50.0 °F 88% 29.80 in 6.2 mi SSW 16.1 mph - N/A Rain Light Rain
6:00 PM 51.8 °F 50.0 °F 94% 29.80 in 4.3 mi SSW 17.3 mph - N/A Rain Light Rain
6:30 PM 51.8 °F 51.8 °F 100% 29.77 in 5.0 mi SSW 16.1 mph - N/A Rain Light Rain
7:00 PM 52 °F 52 °F 98% 29.77 in 4 mi South 13.4 mph - - Rain Light Rain
7:00 PM 51.8 °F 51.8 °F 100% 29.77 in 4.3 mi South 13.8 mph - N/A Rain Light Rain
7:30 PM 51.8 °F 51.8 °F 100% 29.74 in 2.5 mi SSW 15.0 mph - N/A Rain Light Rain
8:00 PM 53.6 °F 53.6 °F 100% 29.71 in 3.1 mi South 17.3 mph - N/A Rain Light Rain
8:30 PM 53.6 °F 53.6 °F 100% 29.71 in 1.9 mi South 15.0 mph - N/A Rain Light Rain
9:00 PM 55.4 °F 55.4 °F 100% 29.68 in 1.6 mi SSW 17.3 mph - N/A Rain Light Rain
9:30 PM 55.4 °F 55.4 °F 100% 29.68 in 2.2 mi SSW 17.3 mph - N/A Rain Light Rain
10:00 PM 55.4 °F 55.4 °F 100% 29.65 in 6.2 mi SW 18.4 mph - N/A Rain Light Rain
10:30 PM 53.6 °F 53.6 °F 100% 29.65 in 6.2 mi SW 18.4 mph - N/A   Partly Cloudy
11:00 PM 53.6 °F 51.8 °F 94% 29.65 in 6.2 mi SW 13.8 mph - N/A   Partly Cloudy
11:30 PM 53.6 °F 51.8 °F 94% 29.65 in 6.2 mi SW 13.8 mph - N/A   Scattered Clouds